Location: Newark
(52.3044°N, 5.0150°E)
Time: 04:13:31
(UTC+00:00)

N. Korean satellite - Visible Passes

Search period start: 07 December 2019 00:00
Search period end: 17 December 2019 00:00
Orbit: 456 x 506 km, 97.2° (Epoch: 06 December)

Date Brightness Start Highest point End Pass type
(mag) Time Alt. Az. Time Alt. Az. Time Alt. Az.
07 Dec 9.4 04:44:10 10° NE 04:46:46 19° E 04:49:20 10° SE visible
07 Dec 6.9 06:16:57 10° N 06:20:22 41° WNW 06:23:43 10° SW visible
07 Dec 7.8 16:57:23 10° S 17:00:59 47° W 17:04:36 10° NNW visible
08 Dec 10.2 04:20:29 10° ENE 04:21:03 10° E 04:21:37 10° E visible
08 Dec 6.4 05:51:24 10° NNE 05:55:00 80° WNW 05:58:31 10° SSW visible
08 Dec 6.6 16:31:48 10° SSE 16:35:31 89° SW 16:39:14 10° NNW visible
09 Dec 7.4 05:26:01 10° NNE 05:29:32 52° E 05:32:58 10° S visible
09 Dec 6.9 16:06:32 10° SE 16:10:08 48° ENE 16:13:43 10° N visible
09 Dec 9.7 17:41:13 10° SW 17:43:46 18° W 17:46:20 10° NW visible
10 Dec 8.7 05:00:52 10° NE 05:03:59 27° E 05:07:01 10° SSE visible
10 Dec 7.4 06:34:16 10° N 06:37:21 28° WNW 06:40:22 10° SW visible
10 Dec 8.7 17:14:50 10° SSW 17:18:09 31° W 17:21:29 10° NNW visible
11 Dec 9.7 04:36:08 10° NE 04:38:19 15° E 04:40:28 10° SE visible
11 Dec 6.6 06:08:33 10° N 06:12:02 50° WNW 06:15:25 10° SSW visible
11 Dec 7.3 16:48:58 10° S 16:52:37 57° W 16:56:16 10° NNW visible
12 Dec 6.5 05:43:02 10° NNE 05:46:37 83° ESE 05:50:07 10° SSW visible
12 Dec 6.5 16:23:29 10° SSE 16:27:11 75° ENE 16:30:51 10° N visible
12 Dec 10.1 17:59:36 10° WSW 18:01:02 12° W 18:02:28 10° WNW visible
13 Dec 7.8 05:17:43 10° NNE 05:21:07 41° E 05:24:26 10° S visible
13 Dec 7.9 06:51:41 10° NNW 06:54:16 19° WNW 06:56:49 10° WSW visible
13 Dec 9.4 17:32:30 10° SW 17:35:21 21° W 17:38:11 10° NW visible
14 Dec 9.0 04:52:40 10° NE 04:55:32 22° E 04:58:19 10° SSE visible
14 Dec 7.2 06:25:48 10° N 06:29:00 33° WNW 06:32:09 10° SW visible
14 Dec 8.3 17:06:18 10° SSW 17:09:44 37° W 17:13:11 10° NNW visible
15 Dec 9.9 04:28:15 10° ENE 04:29:49 12° E 04:31:23 10° ESE visible
15 Dec 6.4 06:00:09 10° N 06:03:39 62° WNW 06:07:05 10° SSW visible
15 Dec 6.9 16:40:34 10° S 16:44:14 71° WSW 16:47:53 10° NNW visible
16 Dec 6.8 05:34:41 10° NNE 05:38:12 66° E 05:41:39 10° S visible
16 Dec 6.6 16:15:10 10° SSE 16:18:47 60° ENE 16:22:24 10° N visible
16 Dec 9.9 17:50:32 10° WSW 17:52:34 14° W 17:54:34 10° NW visible
